Location: Gniazdowice
(50.2124°N, 20.2673°E)
Time: 23:29:32
(UTC+00:00)

UNK - Pass Details

Date: 23 May 2024
Orbit: 659 x 680 km, 98.3° (Epoch: 22 June)

Event Time Altitude Azimuth Distance (km) Brightness Sun altitude
Rises 01:42:10 0° 171° (S) 3,028 6.7 -8.1°
Reaches altitude 10° 01:44:25 10° 175° (S) 2,117 5.9 -7.8°
Maximum altitude 01:49:02 66° 258° (WSW) 745 3.8 -7.3°
Drops below altitude 10° 01:53:40 10° 341° (NNW) 2,130 6.7 -6.8°
Sets 01:55:56 0° 344° (NNW) 3,048 7.5 -6.5°
